RH
10 7 5 3 4 5 5 5 7 11 15 20 22 24 26 27 28 28 28 28 28 28 28 28 27 27 28 27 27 27 27 27 27 28 28 26 25 25 24 25 25 27 27 27 27 27 26 25 23 20 17 13 11 10 11 12 13 18 23 28 26 19 20 21 22 25 25 26 26 25 24 25 29 34 41 45 45 42 36 32 31 30 29 29 29 29 27 27
5 4 4 4 4 4 7 11 18 23 26 28 28 29 29 29 29 29 28 28 28 27 27 27 27 28 27 26 26 26 26 26 26 27 28 27 27 26 26 26 28 29 29 30 30 30 29 28 28 27 24 20 16 14 15 17 17 19 21 19 15 13 15 17 22 25 24 24 22 21 19 20 24 30 38 41 40 36 30 28 27 27 27 27 27 28 28 27
3 4 4 5 7 10 17 23 28 30 30 31 30 31 30 30 29 28 28 27 28 27 27 26 26 27 26 26 26 26 26 26 26 26 26 25 25 27 27 27 28 29 29 29 30 30 30 30 30 29 28 24 21 17 16 19 22 23 23 20 16 15 18 21 26 28 28 25 21 21 21 22 25 29 34 35 32 28 26 26 25 25 24 25 26 27 28 28
4 6 8 12 18 24 29 31 33 33 32 32 31 31 29 29 28 28 28 28 27 26 25 25 25 25 25 26 26 27 26 25 25 24 23 22 23 24 26 27 28 28 28 28 27 28 28 29 30 31 30 28 24 20 16 16 20 22 22 20 19 21 24 27 29 31 30 26 22 22 23 25 28 29 30 29 27 26 25 25 24 23 22 22 23 25 28 28
9 14 20 26 31 34 35 35 34 33 32 32 31 30 29 29 29 28 27 25 24 23 23 24 24 25 25 25 26 25 24 23 21 21 22 23 24 24 25 26 26 26 25 25 25 25 26 27 29 30 30 28 26 21 17 16 17 18 19 18 20 23 25 26 28 30 29 25 21 22 24 26 27 28 28 27 26 26 25 24 22 21 22 23 24 26 28 28
19 26 31 34 36 36 36 35 34 33 32 31 30 30 28 27 25 24 23 22 22 22 22 22 22 22 22 21 23 24 25 25 24 24 26 27 27 27 26 26 26 26 26 26 26 26 27 28 28 28 27 25 23 19 17 16 16 18 18 18 19 19 20 21 23 24 23 21 20 22 25 26 27 27 26 26 26 25 24 23 23 23 24 25 26 28 29 31
29 32 35 35 36 35 34 34 33 33 31 30 29 26 24 22 22 22 21 21 20 20 20 20 20 21 22 24 26 28 31 32 31 30 29 28 27 27 28 28 28 28 28 28 28 28 28 28 28 27 27 25 22 18 16 15 15 16 17 17 17 17 17 18 19 20 19 19 20 22 25 27 27 27 26 26 26 25 25 24 25 25 26 26 28 29 31 35
34 35 35 35 35 35 34 33 31 30 29 26 24 22 21 21 20 19 18 18 19 20 23 25 27 30 32 33 33 33 34 34 31 29 27 26 25 25 26 26 26 26 27 29 29 30 29 29 29 28 27 25 22 19 16 15 14 15 15 15 16 16 16 17 18 20 21 22 23 24 26 28 27 27 26 26 26 26 26 27 27 27 27 28 28 29 32 37
36 36 36 35 34 33 32 30 29 27 24 22 22 22 21 19 18 18 20 22 24 26 29 31 33 35 35 35 34 33 32 29 26 24 23 22 20 18 18 18 19 19 21 23 25 27 27 27 27 27 26 24 22 19 17 16 16 16 17 17 17 18 19 20 21 24 26 27 27 27 28 28 27 28 28 28 28 28 29 29 30 30 30 30 30 32 35 41
37 36 35 34 32 32 29 28 26 24 23 23 22 19 17 18 19 21 22 22 24 25 27 29 31 32 33 33 32 32 29 23 20 19 17 16 14 13 12 12 13 13 14 15 16 18 20 23 25 26 24 23 21 18 16 16 16 17 18 19 20 21 23 23 25 26 28 28 28 28 28 27 27 28 29 29 29 29 31 31 32 32 32 33 34 37 41 46
36 34 33 32 30 28 27 25 23 22 22 19 17 17 19 20 18 16 16 18 21 24 26 28 30 30 31 31 30 29 23 18 17 15 14 14 12 11 11 10 11 11 12 12 12 12 14 17 20 21 21 20 20 18 17 16 16 16 16 17 18 19 20 21 24 25 26 26 26 26 26 26 26 27 27 26 27 28 29 30 31 32 33 36 39 42 46 50
33 32 30 28 26 25 23 22 21 20 16 14 18 20 19 14 10 11 14 16 19 24 26 27 28 29 30 28 27 25 19 18 16 11 11 11 9 9 10 10 11 11 12 12 12 12 11 12 13 14 15 16 17 17 17 17 17 17 17 18 18 19 20 21 22 23 24 25 25 26 27 28 28 28 28 28 29 29 29 30 31 34 35 38 42 45 48 52
28 26 24 22 20 18 17 16 15 13 12 19 22 16 12 10 9 10 12 13 16 22 26 27 25 23 25 25 23 20 18 17 13 9 8 8 7 8 9 10 10 11 12 11 11 11 11 12 12 12 12 12 13 14 15 15 15 16 16 17 18 19 20 23 25 25 28 29 29 30 30 31 32 32 33 33 33 32 32 32 33 36 37 40 44 46 48 49
21 19 17 15 13 10 9 9 10 13 19 24 18 10 11 10 8 8 11 14 18 22 23 24 22 20 23 23 17 13 14 12 9 8 8 7 7 8 9 9 9 10 10 10 11 11 11 12 13 13 13 13 13 14 15 14 14 16 17 20 22 23 28 32 35 36 36 36 36 36 35 35 35 35 35 35 35 35 35 35 36 37 38 40 42 44 45 46
16 15 15 15 16 14 14 15 18 24 26 20 12 11 13 10 8 7 9 15 19 22 22 21 20 21 24 21 14 9 9 9 8 9 8 8 8 8 9 9 9 9 9 10 10 10 11 12 14 14 15 15 15 15 16 17 19 22 24 28 31 33 37 39 39 40 39 38 38 38 37 36 36 35 35 35 36 37 38 39 39 40 41 41 41 43 46 48
17 18 21 23 24 24 24 25 26 27 22 14 12 14 12 9 8 6 8 16 21 20 17 17 15 17 23 21 13 9 9 9 9 9 8 9 8 8 9 9 9 9 9 10 11 12 13 14 16 16 16 16 17 20 22 24 27 31 32 34 37 37 37 36 37 38 37 37 39 38 37 36 36 36 36 37 37 38 40 41 42 42 44 45 46 47 50 53
23 24 26 26 25 24 24 24 22 20 16 14 14 13 11 9 7 5 9 17 20 16 11 11 10 12 22 20 12 10 10 10 9 9 8 8 9 9 10 10 10 9 9 11 14 14 15 17 17 17 20 22 23 24 24 27 31 31 30 30 30 30 29 28 30 32 32 35 38 38 39 38 38 38 38 38 39 40 41 42 43 43 45 48 50 53 54 55
25 26 25 23 21 19 19 19 17 16 15 14 12 11 9 7 7 5 10 16 17 15 12 10 9 12 18 14 9 10 10 9 9 8 8 8 9 9 9 10 10 10 11 14 15 15 15 17 18 20 24 25 23 20 18 22 24 22 21 22 23 24 23 23 25 29 32 36 40 42 44 45 44 43 42 41 41 41 41 42 43 44 47 50 53 55 57 57
24 23 21 19 18 17 17 16 15 15 13 11 9 8 8 7 7 7 10 15 14 13 13 10 9 10 11 9 9 10 10 9 9 8 9 9 9 10 10 10 11 11 11 12 13 14 16 18 20 21 22 20 18 18 18 22 24 24 25 25 24 24 24 25 27 32 37 42 46 48 49 50 51 50 48 46 44 44 44 44 44 46 49 53 56 58 59 59
20 18 16 15 13 12 11 11 10 10 9 8 7 6 7 6 7 9 10 13 13 11 10 9 9 9 9 9 9 10 10 10 10 9 10 10 9 11 11 11 11 11 11 11 13 16 19 20 20 19 20 21 21 25 27 27 27 28 29 28 27 28 28 29 33 39 44 46 46 48 50 51 51 51 50 49 48 46 47 47 48 49 53 56 58 59 60 63
15 13 12 10 8 7 7 6 6 6 6 6 5 6 6 6 9 11 11 13 13 10 9 10 10 10 10 10 11 12 12 10 10 11 11 10 10 11 12 11 11 12 12 12 15 19 20 20 20 21 25 26 27 31 31 28 27 25 26 27 28 31 31 32 37 40 42 42 41 42 43 44 44 44 43 43 42 44 45 47 49 52 55 56 57 59 60 62
14 13 12 8 7 7 6 6 6 5 6 5 6 6 6 6 8 9 11 13 13 11 10 11 11 11 11 11 11 14 14 11 12 12 10 10 10 10 11 11 12 12 13 15 19 22 20 19 24 27 30 30 31 32 30 27 26 23 25 28 28 30 30 32 36 36 36 37 35 34 35 37 37 36 37 38 39 42 44 47 50 52 53 55 56 57 55 53
15 15 13 9 7 6 6 6 6 6 6 6 7 7 7 7 7 8 11 14 13 12 12 13 13 11 11 11 10 13 14 11 11 11 9 8 8 10 11 12 12 12 14 15 18 20 18 20 27 30 32 33 32 32 30 27 23 20 23 26 26 26 29 32 32 31 32 32 32 35 37 36 35 35 36 40 42 45 48 48 49 52 53 54 54 51 48 46
18 18 15 10 7 6 5 5 6 6 6 6 7 7 7 8 7 8 13 16 13 12 13 13 14 12 11 10 8 10 13 9 9 10 7 7 9 10 12 12 12 13 13 11 13 16 17 22 30 32 33 34 32 32 29 23 20 19 22 24 25 24 27 31 31 32 31 30 35 40 42 39 37 39 41 45 49 49 51 51 52 54 54 52 50 47 46 46
20 18 16 12 7 5 5 4 6 6 5 6 6 7 7 8 8 8 13 17 13 14 15 13 14 14 11 9 7 9 12 9 9 8 6 8 9 10 13 13 12 12 11 12 16 19 21 27 34 35 35 35 32 28 23 20 18 19 22 23 24 22 23 28 33 38 39 39 42 47 55 54 41 40 47 47 48 50 51 52 52 54 53 50 48 47 47 49
20 17 17 13 6 5 5 4 5 5 5 5 4 6 6 7 8 7 13 18 15 16 17 13 14 14 10 8 6 8 11 10 10 8 7 9 10 10 13 12 12 11 10 14 20 22 27 35 38 36 33 30 26 21 19 19 18 20 22 21 22 24 27 33 34 38 47 51 49 51 64 63 40 33 43 42 41 47 51 51 52 52 51 49 48 49 51 51
19 16 16 13 6 4 4 4 5 4 5 4 4 6 5 8 9 7 15 22 18 17 16 14 14 12 9 7 6 7 10 9 10 10 9 10 9 10 13 13 12 11 11 15 17 24 35 39 38 33 27 21 17 17 20 21 21 21 21 22 22 24 31 35 30 33 48 54 51 50 58 65 46 29 32 34 38 46 48 51 53 52 52 51 52 54 54 49
18 15 16 12 5 4 4 5 5 5 6 5 5 6 6 10 9 11 21 22 18 19 17 14 14 12 8 7 7 8 9 9 9 9 8 8 8 10 14 14 12 11 11 15 18 26 34 31 30 28 21 17 17 23 26 24 23 21 22 22 20 24 31 32 28 35 48 52 51 47 53 69 54 24 25 35 40 44 44 46 49 50 54 55 57 56 52 46
17 15 15 10 4 4 5 6 6 6 7 6 6 7 9 10 9 20 28 19 16 21 17 14 13 11 8 7 8 8 9 10 8 8 8 8 9 12 15 12 12 12 13 17 20 24 27 23 24 25 20 20 24 30 30 26 25 23 22 18 17 25 26 24 28 38 50 53 50 46 52 72 57 20 23 38 40 43 41 40 43 46 50 53 54 52 49 47
18 16 15 8 4 6 6 6 7 7 7 6 7 8 11 12 15 26 26 14 16 20 16 14 11 10 8 7 8 9 10 11 9 9 9 8 9 11 14 14 15 14 14 20 21 21 23 20 22 24 22 25 29 32 31 29 29 25 21 17 20 27 24 26 29 30 45 51 46 44 47 68 65 27 19 32 36 40 38 35 39 43 46 47 47 48 47 47
18 16 13 7 5 6 7 7 7 7 7 7 8 10 13 16 19 23 18 14 19 18 16 14 9 9 8 7 8 9 10 11 10 10 9 9 10 9 12 13 15 16 16 20 22 24 24 18 18 21 24 29 32 35 33 32 31 26 21 15 20 26 20 21 24 28 45 43 37 44 42 56 64 32 18 29 34 37 35 32 35 39 42 43 43 44 44 45
15 14 10 6 6 7 6 6 6 6 7 7 8 12 14 14 15 15 14 17 18 14 14 13 9 9 8 7 8 8 10 11 9 9 9 10 11 8 9 10 13 17 17 18 22 28 27 19 17 19 23 26 27 31 31 30 29 23 18 13 22 41 41 39 48 54 55 36 27 40 39 42 45 22 15 26 28 31 31 31 34 35 38 40 41 41 39 38
13 12 8 6 7 7 6 6 6 6 7 8 10 14 15 12 11 11 12 13 12 13 14 12 8 8 8 7 8 8 11 11 9 10 11 11 11 8 9 10 12 17 18 17 21 27 30 27 21 18 22 23 23 27 25 27 30 22 20 20 32 60 69 72 79 65 43 28 22 33 41 38 28 15 14 17 17 22 25 29 31 27 28 31 32 32 28 26
12 9 6 7 7 6 6 6 6 6 7 8 11 15 14 11 11 11 9 7 8 10 13 12 9 8 8 8 7 9 12 12 10 11 14 13 11 9 10 10 11 15 17 18 20 24 28 29 21 17 23 23 24 29 26 30 37 30 25 24 34 51 51 56 68 50 32 35 29 27 36 32 19 12 10 8 10 16 17 19 19 15 15 17 18 18 16 16
10 6 6 7 6 6 6 6 7 7 7 8 11 12 10 9 10 9 8 7 7 7 10 14 11 7 8 8 7 10 13 12 10 11 14 13 11 10 12 12 11 14 16 17 21 23 26 27 22 19 22 23 26 30 28 31 37 34 25 20 27 39 39 45 54 44 45 60 53 35 25 14 9 9 8 8 10 10 9 9 8 8 8 8 8 9 11 12
7 6 7 7 6 7 7 7 7 7 7 8 10 10 8 8 9 8 8 8 7 6 8 15 14 8 8 8 7 9 12 13 11 10 12 14 14 12 12 13 13 15 16 17 21 23 26 28 24 21 21 22 26 28 29 32 33 31 25 19 20 33 49 51 41 39 54 63 50 33 18 8 8 9 9 11 8 5 7 6 5 6 6 6 6 6 9 11
6 7 7 7 7 7 7 8 7 7 8 8 7 7 7 7 7 7 7 7 7 6 6 11 12 8 8 8 8 8 11 13 11 10 11 14 17 14 12 14 13 15 17 18 20 22 25 25 23 23 22 22 25 27 30 33 35 33 28 24 23 33 52 50 38 45 59 58 42 28 21 17 17 15 7 7 7 5 6 5 4 6 5 6 6 6 9 9
7 7 7 7 6 6 6 8 7 6 7 7 6 5 6 6 5 6 6 6 7 7 5 7 8 8 8 8 8 8 10 12 11 11 11 13 17 16 14 14 13 16 17 18 20 21 25 26 22 22 22 22 24 28 33 33 35 36 32 29 24 26 35 35 37 39 41 55 55 36 27 20 13 12 6 4 6 5 5 5 5 6 5 6 6 6 8 8
8 7 7 6 5 5 6 6 5 4 5 5 5 4 4 5 4 5 6 6 7 6 6 6 6 7 7 7 8 8 10 11 11 11 11 12 16 17 15 14 15 17 17 18 20 20 25 29 25 21 21 22 21 27 33 30 32 34 35 35 28 26 28 27 34 31 32 60 64 46 44 29 6 6 5 4 7 5 6 6 5 6 6 6 7 6 8 8
8 7 6 4 3 4 5 5 4 4 4 4 4 4 4 4 4 4 5 5 6 6 5 5 6 7 6 7 8 7 9 11 10 11 11 12 15 18 17 15 15 17 18 19 21 20 24 30 29 22 19 22 22 25 28 26 30 34 35 39 35 34 35 30 33 33 40 67 78 76 70 29 -2 6 6 4 8 6 6 7 5 7 6 6 8 7 7 8
7 6 4 3 3 4 4 4 3 3 4 3 4 4 4 4 3 4 4 5 6 5 5 5 6 6 6 6 7 6 8 10 11 11 11 12 14 15 16 15 15 17 19 20 21 22 22 25 28 22 18 20 20 20 23 24 29 31 33 40 40 40 39 34 35 36 40 56 70 85 75 23 -1 10 6 5 10 6 7 8 6 7 6 7 8 7 9 9
6 5 3 3 3 3 3 3 3 3 4 3 4 3 4 4 3 4 4 4 5 5 5 5 5 6 6 5 6 6 7 9 12 12 10 11 13 13 14 16 16 17 19 20 20 22 22 25 27 23 18 19 19 20 22 24 27 31 34 38 42 47 46 40 36 32 39 51 57 77 76 29 3 9 6 7 10 6 8 9 7 9 7 7 8 8 11 11
4 4 3 3 3 3 3 3 3 3 3 3 3 3 3 3 3 3 3 4 4 4 4 4 5 6 5 5 6 6 7 9 11 11 10 11 12 12 14 15 16 17 18 19 20 21 22 26 28 24 17 14 16 19 20 23 28 33 36 38 42 47 47 47 45 38 44 52 55 78 80 30 -2 7 10 8 9 7 9 9 9 11 9 9 10 10 12 14
4 4 3 3 3 3 3 3 3 3 3 3 3 3 3 3 3 3 3 3 4 4 4 4 5 5 5 5 6 6 7 8 9 10 10 10 11 12 13 14 16 17 17 19 21 21 22 25 28 30 27 23 23 24 22 25 31 32 33 35 38 42 45 50 54 56 57 50 45 67 67 23 0 11 11 7 10 9 10 12 13 15 15 16 15 12 13 17
4 3 3 4 3 3 3 3 4 3 3 3 3 3 3 3 3 3 3 3 3 4 4 4 4 5 4 5 6 6 7 7 8 9 9 10 11 12 13 14 16 17 18 20 20 21 23 25 27 32 36 35 32 28 23 24 30 32 32 34 34 38 45 49 55 64 65 53 44 48 40 13 2 9 9 8 11 9 10 14 16 18 19 18 17 16 16 19
4 3 3 4 3 4 4 3 4 4 3 3 3 3 3 3 3 3 4 4 3 4 4 3 4 4 4 5 5 6 6 6 8 8 8 10 10 11 13 14 15 17 19 20 20 21 23 23 23 28 31 28 25 24 24 27 31 31 31 34 34 35 39 45 58 64 57 56 52 36 27 23 12 8 9 10 11 12 14 17 18 21 22 21 21 20 19 20
4 3 3 3 3 4 3 3 4 3 3 4 3 3 3 3 3 3 4 4 3 3 4 3 4 4 4 5 5 5 5 6 7 8 8 9 10 11 12 13 15 17 18 21 22 23 23 21 20 23 23 22 21 21 24 29 31 27 26 27 29 31 33 39 49 48 45 59 54 26 26 37 20 6 11 12 14 18 19 22 27 28 27 26 25 25 27 27
4 3 3 3 3 3 3 3 3 3 3 3 3 3 3 3 4 3 3 3 3 3 4 3 4 4 4 5 5 5 5 5 6 7 8 9 9 11 12 12 15 16 17 22 23 23 26 24 21 21 21 22 24 22 23 29 28 22 21 22 23 28 31 33 36 34 40 53 43 22 32 39 19 8 13 15 19 23 26 32 35 31 30 31 34 38 39 37
4 4 4 4 3 3 3 3 3 3 3 3 3 3 3 3 4 3 3 3 3 3 4 3 4 4 4 5 5 5 6 6 6 6 7 9 9 10 12 13 14 15 17 21 22 24 28 25 22 24 22 20 23 23 22 24 23 19 19 21 23 27 31 33 33 34 42 45 32 28 39 34 15 12 17 21 27 31 33 36 34 33 38 44 49 51 48 45
3 3 3 3 3 3 3 3 3 4 3 4 4 3 3 4 4 4 4 4 3 3 3 3 4 4 4 5 5 5 6 6 6 6 7 8 9 10 12 12 14 16 18 20 22 24 27 26 24 27 26 19 18 23 24 24 26 24 20 17 19 23 26 27 26 29 37 35 25 29 37 27 15 18 25 29 33 34 35 36 38 44 50 54 57 58 55 52
3 3 3 3 3 3 4 4 4 4 4 4 4 4 4 4 4 5 4 4 4 4 4 4 4 4 4 5 6 6 6 6 6 6 7 8 9 10 11 12 14 16 17 20 23 24 27 28 25 30 34 23 17 24 27 27 30 25 16 12 12 13 16 17 19 23 27 28 27 32 33 23 20 27 32 32 33 35 37 41 47 51 53 57 63 65 64 59
3 3 3 4 4 4 5 5 5 5 4 5 5 5 5 4 5 5 5 5 5 4 4 4 4 5 5 5 6 6 6 6 6 7 7 8 8 9 10 12 12 14 16 20 23 24 26 30 30 36 41 29 21 27 28 31 35 25 13 11 12 13 16 18 20 20 21 26 30 30 26 22 26 33 34 34 37 41 45 49 53 52 51 59 67 69 69 67
Wind_Speed
7 5 5 5 6 7 7 8 9 9 9 9 9 8 7 6 5 4 3 1 1 0 1 2 3 4 5 5 6 7 9 10 10 10 10 11 12 12 13 13 12 11 11 10 10 10 10 9 9 9 9 9 9 10 11 12 14 15 17 19 21 22 21 18 16 15 14 14 14 15 15 15 15 16 16 17 17 17 16 16 16 16 17 18 20 21 22 22
9 9 8 8 8 8 9 9 10 9 9 7 6 5 4 3 2 1 1 2 2 3 3 4 6 7 8 9 10 11 12 12 13 13 13 14 14 14 15 15 14 13 13 12 12 12 12 12 11 11 10 10 10 10 12 13 14 15 17 19 20 20 19 17 15 14 13 12 13 14 15 15 15 16 16 17 17 17 16 16 17 18 18 20 21 23 24 25
11 11 10 10 10 10 10 10 9 7 6 5 3 2 2 2 2 3 4 4 5 6 7 7 8 10 11 12 13 13 14 14 14 15 16 16 16 16 16 16 16 15 15 15 15 15 15 14 14 13 12 11 11 11 12 14 15 16 18 20 19 19 18 17 15 13 12 12 13 14 14 13 14 15 16 18 18 18 19 19 20 20 21 22 24 25 26 26
12 12 12 12 12 11 9 8 7 5 4 3 3 3 4 4 5 6 7 8 9 10 10 11 12 12 13 13 14 15 16 16 16 16 17 16 16 16 17 18 18 18 18 17 17 17 17 16 15 14 13 12 12 11 13 14 16 17 18 18 18 18 18 17 16 14 15 15 15 14 14 13 14 16 18 19 20 21 22 22 22 23 24 25 26 26 26 27
12 12 12 12 11 9 8 6 5 4 4 4 5 6 6 7 8 9 10 11 12 13 14 14 14 14 15 15 15 15 16 16 15 14 14 14 14 14 15 17 18 19 19 18 18 18 17 16 15 14 13 13 12 12 14 15 16 18 17 16 17 19 19 20 19 18 18 18 16 15 15 15 17 18 20 22 23 23 23 23 24 25 26 27 26 26 26 27
11 11 10 9 8 7 5 5 5 5 6 6 7 8 9 10 11 12 13 14 15 16 16 16 16 15 15 14 14 14 13 13 12 12 12 13 13 12 13 14 15 16 15 15 15 14 14 14 13 13 12 12 12 12 14 14 16 17 17 17 18 20 20 21 21 19 19 19 18 17 17 18 19 21 22 23 24 24 24 25 25 26 26 26 25 26 26 26
9 8 7 6 5 5 5 5 6 7 8 8 9 11 12 13 14 15 16 17 17 17 16 15 14 13 12 11 11 11 10 11 12 13 13 12 11 10 11 11 12 12 11 11 11 11 11 10 11 11 11 11 11 12 13 14 15 16 16 18 19 20 21 21 21 21 21 20 20 19 20 21 23 24 24 24 24 24 25 25 26 26 26 25 25 26 26 25
8 6 5 5 5 6 6 7 8 9 10 11 12 14 15 16 16 16 16 16 15 14 12 11 10 9 8 8 9 9 10 10 11 11 11 10 10 9 10 10 10 10 10 10 10 10 10 10 10 10 10 10 11 11 12 13 14 15 16 18 20 20 20 20 21 20 20 19 19 20 21 22 23 24 25 25 25 25 25 26 26 26 25 25 25 26 25 24
7 7 6 7 7 8 8 9 10 11 12 14 15 16 16 16 15 13 12 11 10 9 8 8 8 8 8 9 9 9 9 9 9 9 9 9 9 10 10 9 10 10 10 10 10 10 10 10 10 10 10 11 11 11 12 12 13 14 15 17 18 18 18 19 19 19 18 17 17 18 20 22 23 24 24 25 25 25 26 25 25 25 24 24 24 24 24 23
7 7 7 7 8 9 10 11 13 14 14 14 15 15 13 11 9 8 7 7 6 7 7 6 6 7 8 8 8 8 7 6 7 8 9 9 9 11 10 8 9 9 9 9 9 10 10 10 11 11 11 12 11 11 12 12 13 13 14 15 16 16 17 17 17 17 17 17 18 19 21 23 24 24 24 25 25 24 24 24 24 24 23 23 22 22 22 21
6 7 8 9 11 12 13 14 14 14 13 12 11 10 8 6 5 6 6 5 5 6 5 5 5 5 5 6 6 6 6 7 9 10 11 9 10 12 11 9 9 8 8 8 8 9 10 11 12 12 12 12 11 11 12 12 13 14 14 15 16 17 17 18 18 19 19 19 20 21 22 24 24 23 23 24 24 23 23 22 22 22 21 21 20 20 20 20
8 9 11 12 13 14 14 14 13 12 10 8 6 4 4 4 6 6 6 5 5 4 4 4 4 4 4 5 5 6 7 8 10 12 12 10 9 11 11 10 10 9 8 8 9 9 9 10 11 12 12 12 11 11 11 11 12 12 13 13 14 15 16 18 18 19 19 19 20 19 21 23 22 21 22 22 22 21 21 21 20 20 20 19 19 19 18 19
10 11 12 12 13 13 12 12 11 9 7 4 2 2 3 5 6 6 5 5 5 4 3 3 4 5 5 4 5 6 8 9 10 12 13 10 9 9 9 9 9 9 9 8 9 10 10 10 10 11 11 12 12 11 11 11 12 11 12 12 13 14 14 14 15 15 15 16 17 16 18 20 20 19 19 19 19 19 19 19 19 18 18 18 18 18 18 19
10 11 11 11 10 9 9 8 7 5 3 1 2 2 4 6 7 6 5 5 4 3 3 4 5 6 5 4 6 8 9 9 9 11 12 11 9 8 8 8 8 9 9 9 9 10 10 10 10 10 10 10 10 10 10 11 11 11 11 10 11 10 10 10 10 11 12 13 13 14 17 19 18 18 18 18 17 17 18 18 18 18 18 19 19 19 19 19
9 9 8 7 7 6 5 4 3 1 1 2 2 3 5 7 7 6 5 4 3 3 3 4 5 6 4 4 8 10 9 9 9 9 10 10 10 9 9 9 9 9 9 9 10 10 10 9 9 9 9 10 9 10 9 9 10 10 8 7 7 6 7 10 9 10 12 12 13 14 16 18 18 18 18 18 17 17 17 17 17 18 18 19 19 19 19 20
6 6 5 5 5 5 4 3 1 1 1 2 4 5 7 8 8 6 4 3 2 2 3 4 5 5 5 6 10 11 9 9 8 7 8 8 9 9 9 9 9 9 9 10 10 10 10 9 9 10 10 10 9 9 8 8 7 7 6 6 6 6 8 11 11 12 13 14 15 15 17 20 20 20 20 19 19 18 18 17 17 18 18 19 19 19 19 19
4 4 4 4 4 3 3 2 2 2 3 3 5 7 8 8 7 6 4 3 2 2 3 5 5 5 5 6 9 8 7 7 7 7 7 8 9 8 8 8 9 9 9 9 9 9 10 9 9 10 10 9 8 8 7 6 6 6 7 8 9 10 11 12 13 14 15 15 16 17 19 22 22 22 21 21 20 19 19 18 18 19 19 19 18 18 18 18
3 3 3 3 3 3 3 3 3 4 6 6 7 8 8 8 6 5 3 2 2 3 4 5 5 5 4 5 8 7 7 7 7 7 7 8 9 8 7 8 8 9 8 8 8 9 9 9 9 8 7 7 7 7 5 4 6 7 8 9 10 10 12 13 13 14 15 15 16 17 18 20 20 21 21 21 20 20 20 19 20 20 19 18 18 18 18 18
2 2 2 2 2 3 4 5 6 7 8 9 8 8 7 6 5 4 3 2 2 3 4 5 5 5 5 6 8 7 8 8 7 7 8 8 8 7 7 7 7 8 7 7 8 8 8 8 7 6 6 6 6 5 4 4 6 7 7 9 10 12 13 13 13 14 15 15 15 16 17 17 18 18 19 19 19 19 20 20 20 20 19 18 18 18 18 19
2 2 3 3 4 5 6 7 8 8 9 9 8 7 6 5 4 3 2 2 3 4 4 4 5 6 7 8 8 8 9 9 7 8 10 8 7 7 6 6 6 6 7 7 7 6 6 5 4 4 5 6 5 5 5 5 6 7 8 9 11 12 12 13 13 12 13 14 15 15 16 16 16 17 17 18 18 19 20 20 21 21 20 19 19 19 20 20
2 3 4 5 5 5 6 7 7 7 7 7 6 6 5 4 3 2 1 1 3 5 5 6 7 7 8 9 9 8 9 10 9 10 10 9 8 6 6 6 6 6 7 6 5 5 5 4 5 6 6 6 6 6 7 8 9 9 8 8 9 10 11 11 11 11 13 16 17 18 19 19 18 19 19 20 20 20 20 21 21 21 20 20 20 20 21 20
2 4 5 5 6 5 6 6 5 5 5 5 5 5 5 3 3 2 1 1 4 6 7 8 8 9 9 9 8 8 8 10 10 9 10 9 7 6 6 7 7 7 6 5 5 6 6 4 5 6 6 7 7 8 10 10 10 9 7 7 8 10 12 11 10 13 15 17 21 22 22 21 20 20 20 20 19 19 19 19 19 19 19 19 19 18 18 16
2 4 5 6 6 6 6 5 4 4 4 4 4 4 4 3 3 2 1 2 4 6 8 8 8 9 9 10 10 8 6 8 9 8 9 8 8 7 7 7 7 7 6 5 6 7 5 5 6 6 7 8 7 7 9 10 10 9 8 7 9 11 12 12 13 16 16 18 21 21 21 20 17 16 15 15 15 15 15 16 16 16 16 16 15 14 12 10
2 4 5 7 7 6 6 5 4 3 3 3 3 3 3 3 3 4 2 1 4 7 8 7 8 9 10 10 11 9 6 9 10 8 9 9 9 8 7 7 8 7 7 7 7 6 4 4 6 7 7 8 8 8 9 10 9 8 8 8 10 12 12 14 16 17 17 17 16 17 17 11 8 11 12 12 12 12 12 13 13 13 13 13 12 11 9 8
2 4 6 8 8 7 6 4 3 3 3 3 3 3 3 3 4 5 4 1 5 10 10 9 10 11 12 11 11 9 7 10 11 8 9 9 9 8 7 7 8 8 8 8 8 6 4 4 6 7 7 8 9 10 9 9 8 8 9 9 10 12 12 13 14 14 15 13 11 12 9 4 7 11 9 10 10 9 10 11 10 10 11 11 10 10 9 9
3 4 7 9 9 8 6 4 3 3 3 3 3 3 3 4 4 6 6 5 5 11 11 10 10 11 12 10 10 10 7 10 11 9 10 9 8 8 7 8 8 7 7 6 6 5 4 5 5 5 7 8 9 8 8 9 9 9 10 11 12 13 12 11 11 12 10 7 7 7 3 5 13 12 7 10 11 9 10 9 9 9 9 10 10 10 10 10
3 5 7 9 9 7 5 4 3 3 3 2 2 3 3 3 4 6 5 5 5 9 11 11 10 11 12 10 10 11 9 10 11 10 9 7 8 9 8 7 7 6 6 5 4 3 3 3 3 5 7 8 8 7 9 11 10 10 12 13 13 12 10 9 10 10 6 3 4 5 3 7 13 13 11 12 10 9 9 9 9 10 9 11 11 11 12 11
4 6 8 9 9 7 5 5 4 3 3 2 2 2 3 3 4 6 3 1 3 7 9 10 10 11 12 12 12 13 11 11 10 9 9 7 8 9 7 7 7 6 6 4 2 1 2 2 3 5 7 9 9 8 10 11 10 11 13 13 13 11 9 9 9 7 3 2 2 4 4 4 12 16 13 9 9 8 9 9 9 9 9 11 12 12 12 12
4 7 9 10 8 6 5 5 4 3 3 2 1 1 3 4 5 6 3 0 3 6 7 9 10 10 12 13 13 13 12 11 10 9 9 9 9 8 7 7 7 6 6 3 0 2 3 3 4 6 9 10 10 8 9 10 10 12 13 13 11 7 7 7 7 5 2 3 3 4 4 2 10 16 10 6 9 9 9 10 10 9 9 10 11 12 13 13
5 7 9 9 7 5 5 4 4 3 3 2 0 2 3 5 6 5 2 2 4 5 6 7 8 9 10 11 11 11 11 11 12 12 11 10 9 8 7 7 5 5 6 3 1 2 4 5 6 7 9 9 7 7 8 8 10 12 13 12 6 3 5 5 5 4 2 3 4 3 4 2 6 12 9 8 12 12 13 13 11 10 10 11 12 13 14 15
6 8 9 9 6 4 4 4 4 4 2 1 1 2 4 6 4 2 1 2 3 4 5 6 8 8 9 10 10 11 11 10 10 10 10 10 9 7 6 6 4 3 4 3 1 2 3 5 8 7 7 8 6 6 8 8 9 11 12 10 3 2 4 4 5 2 1 2 5 5 7 5 7 10 11 13 14 14 15 15 13 13 12 13 14 14 15 16
7 8 9 7 5 4 5 5 5 4 2 1 2 3 5 4 1 1 1 2 3 4 4 5 8 9 10 11 11 11 11 10 10 10 10 10 7 6 5 6 5 2 3 3 1 0 1 3 8 8 6 7 7 7 8 7 9 10 10 8 4 3 5 3 4 2 3 5 5 7 10 9 14 16 14 13 14 15 16 15 14 13 13 15 15 16 17 18
6 8 8 6 5 5 6 6 5 3 1 1 3 4 3 2 0 0 0 1 2 3 3 4 8 9 10 12 12 12 11 11 12 12 12 11 9 8 8 8 8 4 4 4 2 1 2 1 7 8 6 7 7 8 8 7 8 10 11 10 5 3 4 2 3 3 5 8 9 13 12 10 15 16 13 13 15 15 16 15 14 15 15 16 17 18 19 20
6 7 6 6 6 6 6 4 3 2 0 2 3 3 2 2 1 1 1 1 3 4 3 4 8 9 10 11 11 11 11 11 12 11 10 9 9 10 9 8 9 7 5 4 2 2 1 1 6 8 7 8 8 8 9 8 7 9 10 8 4 2 2 2 3 2 5 11 16 16 8 7 11 14 16 17 15 15 15 14 15 16 16 17 19 20 20 21
6 6 6 6 6 4 4 3 2 1 1 2 2 2 2 2 2 2 1 2 4 5 5 5 7 9 10 11 11 11 10 10 11 10 8 8 8 9 9 8 9 7 6 4 3 3 2 3 5 9 8 8 8 8 9 8 6 7 8 7 5 2 2 3 5 6 7 9 12 10 8 13 19 20 19 16 13 14 14 15 16 16 17 19 20 20 21 22
5 5 5 5 4 3 3 2 1 1 1 2 1 1 1 2 3 2 1 3 4 5 6 4 6 8 9 10 11 10 10 10 10 9 8 8 9 9 9 8 8 8 8 7 5 4 3 4 5 7 8 8 8 8 9 7 6 6 6 7 7 3 4 4 5 7 5 4 6 7 12 20 22 18 14 11 13 15 14 15 16 16 18 20 20 20 21 23
4 4 4 3 3 4 3 1 1 1 1 2 1 0 2 4 4 3 2 3 4 5 6 5 5 7 8 9 10 9 9 9 10 9 8 8 7 8 9 8 8 8 8 8 7 6 6 6 5 6 8 8 8 9 8 8 7 6 5 7 8 4 4 5 4 3 2 1 6 9 14 22 19 13 11 11 14 16 16 17 18 18 20 22 22 22 23 24
3 3 2 2 4 4 2 0 1 1 2 2 2 3 5 5 4 3 3 4 4 5 7 6 6 8 8 8 9 9 8 8 8 8 8 7 6 7 8 7 7 8 8 8 8 7 7 6 5 6 8 9 9 10 10 9 8 7 6 7 7 3 4 5 3 2 2 1 5 9 13 20 19 14 14 15 15 16 17 19 20 21 23 23 24 25 25 26
2 1 1 2 4 3 1 1 2 3 4 4 4 5 6 5 4 4 4 4 5 5 7 8 8 8 9 9 9 10 8 7 8 8 8 8 6 6 7 7 7 7 7 8 8 8 8 6 4 6 9 10 10 10 10 10 10 9 8 8 7 4 5 7 5 4 2 2 4 7 7 13 17 17 17 15 15 17 18 19 21 22 24 26 27 28 28 29
0 1 2 3 3 2 1 2 4 4 5 5 5 5 6 6 6 6 5 6 6 6 8 9 9 9 9 9 9 10 10 8 9 9 8 8 7 6 6 7 7 7 8 8 9 10 9 6 6 7 10 10 11 10 10 11 11 11 11 10 9 7 6 8 9 9 5 3 2 1 5 19 23 16 15 14 14 18 19 21 24 25 26 28 28 30 32 32
2 3 4 4 3 3 3 4 6 7 7 7 6 7 7 7 7 7 7 7 7 7 8 9 10 10 10 10 9 10 10 9 9 9 9 9 8 7 6 7 8 8 8 9 10 10 9 9 11 13 12 11 13 13 13 14 12 13 13 13 12 11 8 6 6 9 8 7 5 3 6 26 24 10 14 15 14 20 22 24 28 31 31 31 31 32 33 34
4 5 5 5 5 6 6 7 8 8 8 8 8 8 8 7 8 8 8 8 8 8 9 9 10 10 10 10 9 10 10 9 8 9 9 9 9 8 8 8 8 9 10 10 10 10 11 12 15 16 15 14 14 15 14 15 15 15 15 15 15 13 11 6 3 7 7 9 10 3 5 25 28 17 17 17 17 24 27 29 33 35 36 36 35 35 34 34
6 6 6 6 7 9 9 9 9 8 8 9 9 9 9 8 8 9 9 9 8 9 9 9 10 10 10 10 9 10 11 9 8 9 10 9 10 10 9 9 9 9 10 10 10 12 12 11 13 18 19 16 14 14 14 15 16 17 17 18 17 16 16 14 12 14 11 12 14 4 5 25 32 22 18 19 25 31 33 35 37 38 40 40 39 40 38 38
7 6 7 8 9 10 11 10 8 7 8 9 9 9 10 9 9 9 10 9 9 10 10 10 10 10 10 10 10 10 10 9 8 10 10 10 10 10 10 10 10 10 10 11 11 12 11 11 13 16 16 12 8 7 9 14 16 19 21 20 20 20 20 19 20 18 13 15 16 7 10 29 33 27 29 32 35 38 38 39 41 41 43 42 41 42 41 41
7 7 9 10 9 10 12 11 9 8 9 10 10 10 9 9 9 9 10 10 10 10 10 10 10 11 11 10 10 10 11 10 9 10 11 11 11 11 11 11 11 12 12 12 13 14 13 14 14 11 6 5 7 8 13 20 22 24 26 25 24 24 22 21 19 16 14 15 16 15 24 40 41 37 41 42 41 42 42 40 41 40 40 40 41 42 42 41
7 8 10 12 11 10 10 12 11 9 9 10 10 10 10 9 10 10 10 10 10 11 11 11 11 11 11 10 11 11 11 12 11 11 12 12 12 12 12 13 13 13 13 14 15 16 16 17 16 15 14 15 18 19 20 24 27 29 30 28 28 27 26 25 20 23 25 20 23 36 44 48 48 44 43 43 42 42 40 37 37 37 37 39 41 41 41 41
8 9 9 10 11 10 10 11 12 11 11 10 10 10 10 10 10 10 10 10 10 10 11 11 11 11 11 11 11 12 12 13 13 13 13 13 14 14 14 14 14 14 14 15 16 16 19 21 19 19 22 21 22 24 24 25 29 33 33 33 32 28 29 31 30 35 34 22 29 49 47 42 50 50 43 42 41 38 37 36 37 38 39 39 40 40 41 41
9 9 8 8 10 10 10 11 11 11 11 10 10 10 10 11 11 10 10 10 10 10 11 12 12 12 12 12 12 13 13 14 14 14 14 15 15 15 15 16 15 16 16 16 17 18 21 24 22 22 25 24 22 25 26 27 30 32 33 34 32 29 31 36 38 41 38 32 41 54 48 45 53 49 40 39 37 36 38 39 39 39 38 38 40 41 43 43
9 9 10 10 11 11 11 11 11 11 11 10 10 10 10 11 11 11 11 10 10 11 11 11 12 12 12 13 13 13 14 14 15 15 16 16 16 16 17 17 16 17 17 17 19 19 20 24 24 24 28 30 28 26 25 26 28 31 34 35 35 36 38 42 44 43 41 45 52 53 51 53 49 41 39 38 36 37 39 38 38 37 38 41 42 43 43 42
11 11 10 10 11 11 11 11 11 11 11 10 10 10 10 10 11 11 11 11 11 11 11 12 12 13 13 14 14 14 15 15 16 16 17 17 17 17 18 18 17 18 18 18 20 20 21 24 25 26 31 35 32 27 25 24 27 35 42 41 39 39 39 37 38 37 38 45 46 43 47 51 43 38 39 39 37 37 36 36 38 39 40 42 42 42 42 41
12 12 11 9 9 11 12 11 11 11 11 10 10 10 10 10 10 10 10 11 11 12 12 12 12 13 14 14 15 16 16 16 16 17 18 18 19 18 19 19 19 20 21 20 21 23 23 25 27 27 30 35 34 29 28 29 34 43 44 34 25 24 25 26 31 34 33 36 36 36 41 45 42 39 39 39 36 35 35 38 41 42 42 42 41 41 40 40
11 11 12 10 10 11 11 11 11 11 10 10 10 10 9 10 10 10 10 11 11 12 12 12 13 14 14 15 16 17 17 17 18 18 18 19 20 20 20 21 21 21 23 22 23 25 25 27 28 24 26 34 34 30 33 36 34 34 29 21 20 25 28 32 35 34 30 30 32 35 40 42 40 37 38 39 37 37 39 41 42 43 44 42 41 41 41 42
Wind_Direction
202 197 178 158 144 132 125 120 116 111 110 109 107 104 102 100 98 99 100 100 101 277 280 286 290 297 298 295 293 290 289 288 289 290 289 285 285 283 277 272 271 271 272 275 280 280 283 284 284 284 281 274 268 261 255 251 248 244 244 246 253 262 268 277 284 288 290 290 289 287 284 281 280 277 270 265 261 259 261 266 271 274 278 279 280 279 280 280
192 182 171 158 143 130 121 117 115 114 116 115 114 114 112 115 125 166 227 247 256 266 267 275 283 287 288 287 286 283 282 283 284 286 285 283 283 279 274 270 267 268 271 273 278 280 280 280 280 280 278 276 271 266 258 253 249 247 248 253 262 271 276 284 287 287 286 285 291 293 289 281 276 271 265 260 258 260 267 273 277 279 282 281 280 279 278 278
173 165 156 147 138 130 125 123 124 126 130 135 142 158 186 225 250 261 268 274 277 281 282 283 283 283 285 286 286 287 286 286 287 287 284 282 279 275 270 267 267 268 272 274 277 279 278 277 277 275 276 275 270 265 260 257 254 251 251 258 271 277 278 281 281 279 276 280 289 291 290 281 271 265 261 260 261 267 274 278 282 284 284 282 279 277 276 278
155 148 141 136 133 131 132 135 143 152 165 185 213 238 257 268 276 281 284 287 288 289 288 286 285 284 285 285 287 287 288 289 291 289 285 283 278 273 268 267 269 271 275 278 279 279 277 275 274 273 274 273 269 265 260 258 256 253 256 265 276 276 274 275 273 270 271 278 283 285 287 278 267 262 259 262 266 272 277 280 284 286 286 286 283 282 281 282
139 136 134 134 137 140 149 160 176 196 216 236 255 265 274 280 283 287 289 291 291 291 290 288 288 288 287 286 285 284 287 291 293 290 289 288 284 279 274 272 273 276 280 282 281 279 277 275 273 273 273 272 270 265 260 259 258 258 262 268 269 269 271 272 271 269 270 274 276 279 282 276 268 264 263 267 271 274 278 281 283 287 289 289 287 284 283 283
134 135 138 142 150 160 177 196 216 234 249 262 271 279 285 290 293 296 296 295 294 292 291 290 290 290 288 286 285 285 289 292 293 293 294 293 291 289 285 282 281 282 284 284 283 281 278 275 272 270 269 270 268 264 263 262 260 261 265 265 264 267 270 272 273 272 272 275 275 276 276 273 271 269 269 271 273 276 279 281 284 288 290 288 285 283 282 280
138 141 147 159 176 198 219 235 249 260 271 280 288 295 298 299 300 300 299 297 295 293 292 291 290 290 288 287 288 291 294 295 296 298 298 296 296 297 294 289 287 288 288 287 286 284 280 273 269 267 265 266 266 265 265 264 263 263 264 263 264 267 269 271 273 275 277 279 278 276 274 272 272 271 273 273 275 277 279 282 285 287 287 286 285 284 282 280
152 160 176 197 216 233 248 260 271 280 289 297 301 301 300 300 300 300 299 297 295 295 293 292 293 292 289 289 291 293 296 297 298 300 300 301 303 302 296 291 290 290 287 285 284 281 276 270 266 266 266 265 265 264 264 264 264 264 262 263 265 267 270 272 274 277 279 279 278 276 274 272 273 273 274 275 277 279 280 282 284 284 284 284 284 283 281 279
175 189 206 223 239 252 264 275 284 290 296 300 300 299 299 300 302 303 303 303 305 307 306 303 298 293 290 290 293 295 297 297 298 302 302 305 309 304 296 291 290 290 289 285 280 276 272 269 265 265 268 269 268 267 265 263 262 263 263 264 267 269 270 272 273 276 277 277 277 276 275 274 275 275 275 276 277 279 280 281 281 281 280 280 280 279 278 277
199 216 232 247 260 269 275 281 285 289 292 294 295 297 300 304 309 314 318 321 323 325 324 317 302 294 291 292 295 295 300 304 310 314 309 312 314 305 303 301 294 291 292 288 284 278 274 272 269 270 273 274 274 270 268 265 262 262 261 263 265 268 270 271 272 273 274 275 275 275 276 277 276 275 275 276 278 278 279 279 279 279 277 276 275 274 274 275
229 245 256 264 271 274 277 279 282 285 287 291 293 295 301 312 322 324 323 322 322 326 329 320 309 302 293 295 298 299 309 313 322 323 314 319 320 308 312 315 304 298 295 293 291 286 279 275 273 274 275 275 274 271 270 267 265 264 262 263 265 268 270 272 274 275 277 277 275 276 277 276 275 275 275 278 280 280 280 279 279 279 278 276 274 273 273 274
253 261 267 271 274 276 279 282 286 289 292 295 290 292 310 320 325 322 314 312 314 318 320 315 309 302 295 303 305 304 311 315 324 323 314 322 321 309 313 314 307 304 299 295 293 287 281 275 274 273 272 273 273 271 271 269 268 267 266 268 270 272 273 274 276 276 277 277 276 278 276 273 274 276 279 281 283 283 282 280 279 277 276 276 274 274 274 275
267 273 278 280 283 285 287 291 295 299 302 296 266 289 323 322 326 321 308 307 309 304 302 302 304 302 292 298 313 312 311 316 323 316 312 321 320 309 309 307 305 305 301 295 291 288 284 280 278 277 275 274 273 271 272 272 273 274 275 276 275 277 276 276 277 277 279 278 279 279 272 272 277 280 283 285 285 283 282 281 278 276 275 275 275 275 276 276
284 289 292 296 300 303 303 302 304 306 294 241 235 297 324 325 327 318 308 312 312 300 299 302 308 307 284 281 321 323 314 316 321 313 312 319 320 315 310 307 307 303 301 299 294 291 287 286 286 284 283 281 279 276 276 276 277 280 281 280 279 277 275 278 278 282 287 285 288 285 273 276 283 285 287 288 287 285 282 280 277 275 274 273 274 276 278 279
298 302 307 318 329 335 334 327 322 302 218 227 272 306 321 323 323 316 313 323 320 304 307 308 314 312 273 273 322 326 321 323 326 318 316 321 322 323 318 314 311 306 307 305 300 298 295 296 298 295 293 290 288 286 283 282 281 283 281 274 274 272 279 292 293 292 296 292 291 288 279 282 287 288 291 291 289 287 283 280 275 273 271 271 273 275 278 280
308 319 334 345 353 359 356 346 339 299 244 273 293 306 313 317 318 316 320 330 320 310 329 321 320 315 269 284 322 327 329 333 335 328 326 331 330 330 326 318 313 311 310 306 305 305 304 305 302 297 296 293 292 290 287 286 280 278 282 275 277 281 286 295 298 296 297 293 288 283 279 283 287 289 291 291 290 288 284 280 274 271 270 270 272 274 276 278
332 346 351 358 1 2 352 335 330 316 297 290 295 302 307 312 312 315 326 330 311 322 351 342 332 324 288 298 324 332 336 338 340 334 333 339 335 331 326 316 311 310 308 309 308 306 303 301 298 295 295 295 292 287 283 283 279 276 287 293 294 296 293 292 293 292 293 289 286 283 280 283 286 288 289 290 290 287 284 281 277 274 273 273 274 275 277 279
350 359 0 7 7 358 332 316 312 303 295 292 294 297 303 307 306 317 328 313 312 317 332 341 342 340 319 313 325 332 338 337 339 337 336 341 334 327 322 315 312 311 312 312 307 306 305 300 299 295 292 293 294 296 296 301 305 301 303 308 308 308 304 301 299 295 294 292 289 289 288 289 290 290 291 290 290 288 286 283 281 279 278 278 278 279 281 281
11 10 2 354 339 322 302 298 295 290 290 291 292 294 300 304 304 320 316 290 330 329 325 345 353 351 336 326 330 336 345 346 346 349 349 346 335 325 318 313 312 311 311 309 304 306 302 298 299 297 301 310 317 331 345 343 329 323 322 323 318 312 308 307 305 301 299 297 294 294 294 294 296 297 296 295 292 291 289 287 285 283 282 281 282 284 284 283
23 355 340 325 315 306 294 289 287 285 286 288 292 297 300 308 312 316 310 300 345 351 358 6 1 0 351 343 344 345 351 353 352 356 354 344 334 325 314 314 314 311 312 310 307 308 301 302 322 340 346 347 355 8 12 2 352 343 332 322 314 309 309 310 308 306 306 303 299 297 296 297 299 300 299 298 295 293 291 288 286 284 284 286 287 288 288 286
4 346 334 326 320 313 300 291 286 284 284 287 295 299 298 310 322 327 358 16 4 4 9 11 9 9 1 356 353 346 348 353 353 352 345 334 332 328 317 324 327 320 319 316 315 320 311 314 350 10 8 3 11 17 10 1 355 345 331 321 315 313 316 316 311 313 314 309 304 301 299 299 300 300 298 296 293 291 288 286 286 288 289 291 291 291 290 288
353 344 339 337 333 328 315 303 296 291 291 295 295 294 293 300 309 306 314 327 345 0 6 13 14 8 4 3 359 344 343 353 350 338 332 332 337 336 330 334 333 327 327 331 331 322 322 345 11 18 13 11 17 10 357 351 347 340 330 323 321 320 321 317 311 312 312 308 306 303 302 303 303 301 298 295 293 290 290 291 293 293 293 293 293 292 291 289
343 348 350 346 342 338 327 316 311 305 302 299 289 287 289 284 277 264 268 312 341 5 11 13 11 5 4 2 357 349 342 354 350 331 334 344 349 349 344 339 338 338 336 337 331 317 332 11 15 14 14 12 8 352 335 328 329 330 327 325 327 327 325 317 311 310 308 307 306 305 306 307 307 305 303 301 299 299 299 299 297 295 295 294 291 289 283 275
335 358 358 352 347 341 334 326 317 312 306 296 287 288 280 266 251 229 214 326 14 20 12 6 2 0 3 359 359 359 351 358 355 342 347 355 357 358 353 346 344 339 331 329 330 329 352 16 5 4 359 351 340 322 314 317 326 335 336 336 336 332 325 316 314 313 312 311 310 312 315 316 323 322 316 310 308 309 305 300 297 293 289 287 281 272 261 253
340 5 1 354 347 340 337 331 316 311 308 299 289 286 270 257 243 219 205 218 14 12 3 358 357 357 0 359 1 4 1 0 354 348 357 359 358 357 350 346 341 335 334 333 335 345 20 26 7 353 332 326 325 318 322 333 340 346 344 341 336 330 323 317 317 315 316 317 319 326 329 335 338 329 319 317 318 315 306 300 296 288 281 276 263 251 249 253
338 3 2 353 344 337 338 335 324 316 314 308 291 284 264 255 241 213 216 245 332 355 352 351 354 357 360 359 2 6 4 357 353 355 1 357 353 352 345 341 339 339 338 332 332 351 31 34 9 341 328 327 323 322 344 354 353 354 348 343 338 332 325 321 322 321 320 323 329 335 324 292 314 320 316 314 315 306 300 299 293 284 276 263 249 249 258 263
337 355 358 349 340 335 333 335 331 321 327 321 298 288 252 250 230 207 230 266 311 338 344 347 351 355 358 0 5 7 4 356 356 0 356 346 347 350 345 339 339 342 341 334 338 10 42 24 337 326 330 332 331 345 5 4 0 354 347 341 335 330 324 318 319 321 315 308 338 346 315 286 299 310 316 310 306 301 297 298 293 284 271 260 257 263 268 267
338 349 350 344 337 331 329 332 330 330 344 335 311 287 234 228 202 198 214 323 325 328 342 350 350 352 355 360 5 6 1 354 354 354 349 347 350 350 343 333 334 348 357 347 321 92 72 354 327 332 341 348 356 10 10 4 358 348 344 338 326 317 311 310 316 323 310 267 327 350 334 284 290 307 320 309 299 306 304 301 294 282 270 266 267 270 270 267
337 341 341 337 333 328 327 329 331 340 351 337 309 239 217 199 184 189 193 23 320 324 341 348 349 352 353 358 2 359 354 349 348 351 356 1 359 354 341 331 340 1 14 18 138 122 74 19 1 357 2 6 9 13 6 0 354 346 343 334 319 302 300 315 322 320 295 257 268 334 343 285 295 309 321 309 302 306 307 307 298 282 272 268 268 271 271 268
326 329 331 332 330 329 331 331 337 349 347 335 232 210 197 179 176 174 168 291 299 316 330 339 348 354 357 358 357 353 353 355 357 1 7 9 6 3 351 342 355 10 22 43 100 104 63 30 13 6 11 12 5 3 358 354 353 349 344 336 318 268 297 314 314 307 301 277 256 273 329 332 297 307 310 302 303 302 303 306 298 285 277 273 273 273 271 269
311 318 324 327 327 331 334 332 334 339 332 314 179 181 172 170 178 171 170 286 295 308 316 332 349 352 356 0 356 353 358 2 5 10 13 15 12 6 1 4 5 352 11 37 64 76 58 26 15 14 15 15 9 3 353 347 352 351 347 347 332 272 302 297 308 327 141 290 265 259 311 308 260 286 304 298 295 295 297 300 293 285 279 277 277 275 273 272
302 312 319 320 320 325 327 326 325 326 317 240 159 152 161 168 197 248 241 269 290 313 317 335 349 349 355 360 356 353 358 2 6 13 22 30 24 7 20 33 27 359 12 32 47 160 213 7 16 13 7 13 14 4 354 344 349 352 357 14 28 6 357 324 315 338 246 275 265 267 303 290 261 280 301 294 289 290 291 292 288 281 278 276 275 275 274 273
299 309 313 312 314 319 321 325 326 323 299 182 153 152 170 183 202 226 175 284 308 322 320 341 352 352 355 356 353 354 0 5 8 13 22 27 20 17 32 36 31 38 38 35 36 298 234 297 9 3 360 9 6 1 358 347 349 358 9 26 37 47 40 316 286 317 284 279 279 281 292 281 272 291 307 299 293 288 285 286 285 284 283 280 278 277 278 279
302 306 305 309 317 320 323 332 334 327 125 148 158 173 227 234 195 165 94 22 8 358 337 340 350 351 351 353 355 358 1 8 12 15 18 18 17 26 34 31 29 34 30 29 22 0 272 260 352 1 2 360 358 358 356 347 344 355 10 24 28 96 115 247 251 250 281 293 295 289 277 260 278 299 307 301 292 282 282 285 284 287 287 283 282 282 284 286
303 301 303 314 324 331 336 347 353 353 92 127 168 216 261 220 178 160 104 22 23 12 351 334 340 348 350 351 357 2 4 8 11 13 14 13 21 29 33 34 32 31 27 21 3 346 288 269 339 1 355 347 350 348 347 351 345 342 358 10 359 322 229 262 259 258 282 304 300 278 254 274 290 299 299 290 281 280 284 286 284 287 286 283 285 287 287 287
300 302 310 324 344 357 353 359 14 27 107 122 161 266 260 168 154 146 86 33 27 18 5 343 337 349 353 352 358 3 5 6 8 10 9 8 18 26 28 28 27 28 25 20 13 357 309 284 320 349 345 338 337 331 334 345 341 332 345 356 351 312 254 273 276 277 297 314 290 261 268 289 301 304 295 277 279 288 287 287 289 289 288 288 290 290 286 286
300 308 319 341 8 8 354 358 33 49 148 143 121 106 154 137 121 111 77 33 24 16 11 3 352 358 359 358 3 4 4 5 4 5 6 9 15 16 17 21 21 21 17 13 12 356 326 303 298 320 331 327 321 318 318 322 324 320 331 347 346 314 249 256 271 316 11 326 280 262 270 290 296 296 295 285 284 291 291 292 295 294 294 294 294 292 288 288
307 317 332 357 9 8 350 339 88 103 151 163 144 120 121 118 100 87 60 30 24 15 13 16 9 5 4 4 7 7 7 5 2 2 5 11 11 5 9 12 11 11 8 4 359 347 333 317 298 306 319 318 310 304 303 304 305 305 313 332 335 306 242 247 260 313 331 275 283 278 277 285 284 285 298 295 286 290 291 291 294 296 297 296 295 294 292 291
310 336 25 19 14 12 6 136 133 128 129 136 140 124 110 103 91 74 53 35 29 19 18 20 17 11 9 9 8 8 7 4 4 6 5 6 3 355 357 0 3 3 357 353 348 342 333 310 293 308 311 307 299 292 288 292 297 296 298 309 317 303 264 265 250 232 231 194 279 302 290 285 295 301 299 292 288 292 291 289 293 297 298 298 297 297 296 293
296 89 67 43 37 42 74 136 141 134 124 120 123 116 103 93 78 63 53 45 35 26 22 20 18 16 12 11 8 5 4 1 1 3 1 360 355 347 347 350 355 352 346 344 340 336 328 297 278 300 308 300 289 284 281 286 289 286 287 294 304 305 288 282 264 243 229 185 220 29 280 292 309 308 286 288 297 298 298 296 297 299 300 302 302 302 301 298
111 97 82 67 72 95 121 136 128 120 119 116 111 102 92 80 64 56 51 45 38 31 27 22 18 16 13 13 8 3 2 356 355 356 353 352 349 344 340 338 343 344 340 337 332 331 327 302 286 292 303 296 283 280 278 278 279 281 286 287 290 297 296 293 271 248 228 214 232 139 267 297 314 305 280 301 307 304 308 305 304 304 303 305 307 307 306 303
112 102 98 95 101 115 124 123 113 113 116 109 97 85 78 71 60 54 48 42 38 31 28 23 18 15 11 10 7 3 360 352 349 349 346 346 342 336 332 330 332 335 331 329 326 323 319 305 290 291 302 298 283 277 272 270 274 277 281 281 285 289 281 268 258 269 255 233 246 198 245 294 310 306 292 306 309 310 315 311 311 310 305 306 308 309 310 307
110 111 118 118 116 114 109 103 104 112 108 94 83 74 69 67 60 54 47 43 37 30 28 23 17 13 8 5 5 3 359 350 345 344 341 339 336 329 325 322 322 321 322 321 319 318 316 307 298 301 308 302 283 272 267 268 273 278 283 285 285 284 282 279 273 277 277 244 238 185 223 285 305 310 297 303 308 311 315 313 313 312 307 308 308 307 309 309
105 118 127 124 121 115 105 95 92 96 92 83 78 71 65 62 60 53 47 43 36 30 26 19 15 11 4 1 359 360 0 352 343 340 336 332 330 325 319 317 314 310 312 314 312 314 313 307 307 313 322 322 302 284 283 286 286 287 290 289 287 284 281 281 276 269 267 255 243 192 232 278 299 304 295 302 308 309 313 312 312 312 310 309 306 304 306 308
114 126 126 121 118 113 107 98 87 82 82 79 75 69 65 61 58 53 46 40 35 30 24 17 12 6 2 358 354 357 359 350 340 335 333 330 326 323 317 313 310 305 306 307 307 308 305 300 302 302 299 292 288 294 303 304 300 294 291 290 290 288 280 277 273 255 247 251 240 227 255 279 293 295 294 302 307 309 314 314 312 311 308 305 303 302 304 306
132 132 128 121 113 105 102 97 90 84 81 79 74 67 64 61 55 51 46 39 32 28 23 16 9 2 360 356 353 355 354 348 341 334 332 329 323 320 315 310 308 303 301 301 302 304 300 298 300 289 273 273 286 295 300 301 297 293 292 289 286 285 282 276 261 248 253 255 256 263 269 279 291 297 298 304 309 311 314 312 307 305 301 300 300 301 304 305
133 133 128 119 113 108 100 94 91 85 78 76 73 68 63 59 53 47 43 36 29 26 20 13 7 0 357 354 352 353 349 345 342 335 332 328 322 318 313 311 308 302 299 296 295 298 297 297 299 293 287 288 294 300 302 299 295 292 291 288 284 282 278 270 259 261 266 259 266 278 278 279 291 300 303 307 313 315 311 306 303 301 299 300 301 303 305 305
134 136 128 115 113 110 101 95 91 85 80 75 71 69 62 57 52 44 39 34 26 22 16 10 6 359 355 353 351 350 345 341 339 336 332 327 322 316 312 311 307 302 299 293 291 294 293 295 299 298 296 295 295 300 302 298 293 291 289 287 286 282 276 272 272 274 271 260 269 283 285 284 292 302 308 311 316 313 307 305 304 302 303 304 305 305 306 306
128 127 121 115 113 108 99 95 90 86 82 75 69 66 60 56 51 42 36 31 23 18 12 6 3 358 354 351 347 346 343 337 334 332 329 325 322 316 311 309 306 301 298 293 291 292 291 294 301 301 301 301 301 303 303 297 294 293 290 288 287 283 279 278 280 281 274 270 278 285 285 286 297 309 314 314 313 308 305 305 304 305 306 307 307 307 308 308
121 117 112 111 111 106 99 93 88 84 79 74 69 63 57 53 48 40 34 28 21 15 9 4 360 356 353 349 345 343 339 334 330 327 325 322 319 315 311 308 306 301 298 294 291 291 290 292 298 302 302 304 306 308 306 301 299 297 295 295 293 288 284 281 282 282 275 276 286 290 284 290 308 321 316 312 311 307 306 305 306 307 308 310 311 310 310 309
121 118 111 107 107 104 99 92 86 82 75 71 65 59 54 49 44 38 31 26 20 13 7 2 358 354 351 348 345 341 337 333 328 324 322 319 316 313 309 306 304 299 296 295 291 290 289 288 295 301 299 301 306 308 306 305 303 300 300 304 303 295 290 288 291 293 287 286 294 291 284 296 317 322 314 312 312 309 307 307 308 310 311 314 315 314 312 311
118 114 109 108 105 100 97 91 85 79 73 69 61 55 50 43 38 33 27 23 17 10 6 0 356 353 348 345 343 339 336 333 328 324 321 318 315 312 307 303 302 298 295 292 289 288 288 286 291 294 292 295 301 302 305 309 308 304 307 315 314 305 299 298 298 297 295 294 293 289 292 306 317 316 313 315 314 310 309 310 310 312 315 317 317 316 315 315